sat.trackr.live / text

‹ back to catalog

STARLINK-4014

NORAD 52684 · 2022-053AE

PAYLOAD ACTIVE UNKNOWN

§ Identity

Operator
Country
US
Launch date
2022-05-18
Launch site
AFETR
Launch vehicle
Mass (kg)
RCS (m²)

Purposes: comms

External: N2YO · Heavens-Above · Gunter

§ Orbital elements

Epoch: 2026-05-25T01:25:48.376416Z

Period
95.44 min
Inclination
53.2137°
Eccentricity
0.0001136
Mean motion
15.08837637 rev/d
Perigee alt
539.0 km
Apogee alt
540.5 km
Semi-major
6,917.9 km
B*
-2.7323e-5
RAAN
161.2834°
Arg perigee
74.6834°
Mean anomaly
285.4284°
Rev number
22,266

§ Raw data

STARLINK-40141 52684U 22053AE  26145.05958769 -.00000723  00000+0 -27323-4 0  99982 52684  53.2137 161.2834 0001136  74.6834 285.4284 15.08837637222665

JSON: /api/v1/satellites/52684 · /tle

For live sub-satellite position, see the globe view (requires WebGL).

§ Visibility from observer

Set your observer location to see the next 7 days of passes ≥ 10°. The values pass through the URL so the page stays shareable.

No JS? Fill the form by hand. The geolocation button needs JavaScript.